This is the latest recevied weather packets stored in our database for station/object EA3FL-15. If no packets are shown the sender has not sent any weather packets the latest 10 day(s).
| Time | Temp. | Humidity | Pressure | Rain* | Wind** | Luminosity | Snow |
|---|---|---|---|---|---|---|---|
| 1777178395 | 13.33° C | 100% | 1021.5 hPa | - | - | - | - |
| 1777177495 | 12.78° C | 100% | 1021.2 hPa | - | - | - | - |
| 1777176595 | 12.78° C | 100% | 1021.2 hPa | - | - | - | - |
| 1777175695 | 13.33° C | 100% | 1021.1 hPa | - | - | - | - |
| 1777174795 | 13.89° C | 100% | 1021 hPa | - | - | - | - |
| 1777173895 | 13.89° C | 100% | 1021 hPa | - | - | - | - |
| 1777172991 | 13.89° C | 100% | 1021 hPa | - | - | - | - |
| 1777171195 | 13.89° C | 100% | 1021 hPa | - | - | - | - |
| 1777170293 | 14.44° C | 100% | 1021.1 hPa | - | - | - | - |
| 1777169393 | 13.89° C | 100% | 1021.1 hPa | - | - | - | - |
| 1777168495 | 13.89° C | 100% | 1021 hPa | - | - | - | - |
| 1777167592 | 14.44° C | 100% | 1020.9 hPa | - | - | - | - |
| 1777166693 | 15° C | 100% | 1020.7 hPa | - | - | - | - |
| 1777165792 | 13.89° C | 100% | 1020.7 hPa | - | - | - | - |
| 1777164892 | 13.89° C | 100% | 1020.8 hPa | - | - | - | - |
| 1777163992 | 13.33° C | 100% | 1020.7 hPa | - | - | - | - |
| 1777163098 | 13.89° C | 100% | 1020.7 hPa | - | - | - | - |
| 1777162192 | 13.89° C | 100% | 1020.8 hPa | - | - | - | - |
| 1777161293 | 14.44° C | 100% | 1020.9 hPa | - | - | - | - |
| 1777160391 | 13.89° C | 100% | 1021.1 hPa | - | - | - | - |
| 1777158591 | 15° C | 100% | 1021.1 hPa | - | - | - | - |
| 1777157691 | 15° C | 100% | 1021 hPa | - | - | - | - |
| 1777156791 | 15.56° C | 100% | 1021 hPa | - | - | - | - |
| 1777155891 | 15° C | 100% | 1021 hPa | - | - | - | - |
| 1777154990 | 15.56° C | 100% | 1021.2 hPa | - | - | - | - |
* Rain since midnight (hover to see other rain measurements)
** Current wind speed in m/s (hover to see current wind gust speed)